Lid_Strength_Index
3 3 3 3 3 2 2 4 9 2 0 9 10 11 9 8 7 6 8 8 9 9 9 10 10 10 9 7 7 10 9 11 14 12 8 8 10 10 11 17 15 15 17 15
4 4 3 3 3 2 4 6 6 2 2 12 13 10 9 8 8 8 8 9 8 8 10 11 10 9 7 6 8 9 9 12 16 14 11 9 10 10 10 11 13 15 19 16
3 4 3 3 3 2 4 6 10 7 5 7 10 11 11 10 6 8 7 8 8 9 9 8 10 10 8 6 7 7 7 11 13 16 13 11 13 11 10 12 16 15 15 13
2 3 3 3 3 2 3 6 8 7 11 10 9 10 10 11 10 7 7 9 9 10 11 10 11 10 9 7 8 8 9 12 12 11 10 10 11 11 11 12 12 14 12 12
3 3 3 3 2 1 4 7 8 7 9 8 9 9 11 11 9 8 9 10 9 8 10 10 11 10 10 10 9 9 9 13 12 14 11 11 12 11 12 11 11 11 11 12
3 3 2 2 2 1 5 4 4 6 8 9 10 10 10 10 7 7 7 8 8 9 8 7 8 7 7 8 9 10 10 12 14 16 13 13 16 12 11 11 11 11 14 12
3 3 2 2 2 2 3 4 5 8 11 10 10 9 9 8 8 8 7 7 8 7 5 6 7 8 8 8 8 8 11 12 15 17 16 20 12 9 9 10 10 10 10 10
3 2 2 2 2 2 3 2 4 7 11 9 9 8 8 7 7 8 8 6 5 4 7 10 12 14 13 11 9 9 8 13 16 18 18 14 11 10 11 11 12 10 10 9
3 2 2 1 1 2 3 3 2 5 9 10 7 8 7 9 10 9 8 6 5 5 9 13 15 16 13 14 12 9 10 12 15 17 19 20 12 10 8 8 14 8 8 8
3 2 2 1 1 2 2 3 3 5 8 7 6 8 9 6 8 10 9 8 9 7 15 15 16 16 11 15 15 16 17 17 18 21 20 16 10 8 8 15 14 8 8 8
2 2 2 1 1 2 2 3 2 5 7 6 5 5 7 6 7 11 8 9 9 11 13 14 15 17 13 14 11 13 14 16 19 17 20 18 8 8 11 10 8 8 7 7
2 2 2 1 1 1 1 4 3 3 6 6 5 4 4 4 4 7 8 8 8 8 11 13 13 15 16 15 16 10 14 12 13 13 13 9 8 8 7 7 7 7 6 6
2 2 1 1 0 1 1 2 3 4 7 7 6 6 4 3 2 2 8 8 6 7 7 10 11 14 14 16 15 13 10 8 11 11 9 9 7 6 6 7 9 8 8 8
0 0 -0 -0 0 1 2 3 2 3 5 10 8 2 4 2 2 3 4 5 4 5 7 11 13 13 10 15 12 12 10 9 11 11 9 8 8 7 8 9 9 9 9 10
-0 -0 -0 -0 1 1 2 3 3 2 5 10 8 4 4 3 3 3 3 4 6 8 10 14 12 10 11 13 12 14 9 10 13 14 8 9 9 9 8 9 10 10 10 11
0 -0 0 1 2 2 2 6 3 2 2 7 11 5 5 4 3 4 5 5 6 7 9 11 9 8 11 14 16 9 8 8 8 9 8 9 9 9 9 10 10 10 11 11
-0 0 1 2 2 2 5 7 4 3 2 7 11 11 6 4 5 6 6 6 7 6 8 12 11 10 10 15 14 8 8 9 9 9 9 11 10 12 10 11 11 11 11 11
1 1 2 2 3 4 5 4 4 3 5 6 12 11 9 5 9 9 7 8 9 9 10 12 13 11 15 14 10 9 9 9 9 9 9 10 11 11 12 11 11 12 12 13
2 2 2 3 4 6 5 4 4 4 6 10 13 13 13 7 10 11 10 10 13 9 13 13 11 16 15 12 10 10 10 10 12 11 11 11 12 12 12 12 12 13 14 13
3 4 6 8 5 3 4 5 7 8 8 10 12 10 12 9 13 12 14 12 13 13 12 10 14 14 12 12 10 10 10 11 11 13 14 13 13 12 12 12 12 12 13 14
5 5 8 4 4 5 7 11 12 11 13 12 10 10 10 8 13 13 13 13 14 15 12 13 14 15 12 11 11 10 10 10 11 11 11 11 11 12 12 12 12 13 14 14
4 4 3 4 7 10 12 13 13 12 13 12 11 10 9 10 8 12 12 14 14 14 11 13 15 15 13 10 10 10 10 10 11 11 10 10 10 11 12 13 14 14 14 14
4 7 11 9 12 14 17 17 14 14 13 12 12 12 12 10 10 12 13 16 15 14 13 17 16 12 11 10 10 10 9 9 10 10 10 10 11 12 13 14 15 14 15 15
11 13 14 14 15 15 15 14 14 13 13 13 13 13 12 13 13 13 13 14 13 16 18 18 14 12 11 10 10 11 12 12 12 12 12 13 13 13 13 14 15 15 16 17
13 13 16 15 14 13 13 13 13 13 12 12 13 13 12 13 13 14 14 15 16 16 18 14 13 12 12 12 12 12 13 13 13 13 13 14 14 14 15 14 15 15 17 18
14 14 14 13 13 14 14 13 13 12 13 13 14 13 14 14 14 15 15 17 18 15 14 13 12 12 12 12 12 12 12 12 13 13 14 14 14 15 15 15 16 18 18 20
14 15 13 14 14 14 14 14 13 12 12 13 14 15 15 14 15 16 15 16 15 14 13 12 12 13 12 12 12 13 12 13 13 13 13 14 14 15 15 16 16 16 16 18